Simultaneous Nadir Overpasses (SNOs) Predictions

Prediction of SNOs between NOAA-19 and METOP-C Satellite Orbit:

Table of predicted SNOs for the next 14.0 days since TLE Epoch: 2/3/2024
Index Date (NOAA-19) Time (NOAA-19) Lat,Lon (NOAA-19) SZA (NOAA-19 ) Date (METOP-C) Time (METOP-C) Lat,Lon (METOP-C) SZA (METOP-C ) Distance(km) Time Diff (sec)
1 02/05/2024 13:58:13 -80.58, 179.18 82.64 02/05/2024 13:59:08 -80.58, 179.17 82.63 0.25 55
2 02/05/2024 14:49:08 80.59, -13.20 97.39 02/05/2024 14:49:48 80.59, -13.29 97.40 1.58 40
3 02/05/2024 15:40:10 -80.60, 154.18 82.61 02/05/2024 15:40:29 -80.59, 154.01 82.62 3.12 19
4 02/05/2024 16:31:06 80.60, -38.54 97.39 02/05/2024 16:31:09 80.61, -38.45 97.40 1.79 3
5 02/05/2024 17:22:07 -80.62, 129.18 82.58 02/05/2024 17:21:49 -80.63, 129.19 82.58 0.39 18
6 02/05/2024 18:13:03 80.62, -63.54 97.42 02/05/2024 18:12:30 80.62, -63.61 97.40 1.51 33
7 02/05/2024 19:04:04 -80.65, 104.18 82.54 02/05/2024 19:03:10 -80.64, 104.03 82.58 2.88 54



Historial Predications of SNOs between NOAA-19 and METOP-C
